Theta_e
340 341 334 331 328 325 322 317 302 306 307 299 299 302 297 305 304 303 303 305 303 308 309 308 308 308 307 309 309 310 313 311 314 306 309 327 336 337 341 341 342 344 346 346 347 348 348 346 346 346 349 349 348 349 349 349 349 349 348 348 348 346 346 346 346 346 346 346 345 345 344 344 344 343 340 340 339 339 339 338 337 338 338 339 338 338 339 339 339 343 345 344 344 342 341 341 340
334 329 329 329 326 323 313 313 305 301 303 298 298 300 299 303 304 302 302 305 308 308 309 309 311 311 312 311 311 310 313 318 319 321 324 332 338 338 341 342 342 342 346 346 347 348 349 348 345 347 349 349 349 348 348 349 348 348 348 348 347 346 346 346 346 346 346 346 345 344 344 344 343 342 339 338 339 339 338 338 338 338 338 339 338 339 337 342 343 344 344 344 343 342 341 340 341
330 327 325 325 323 318 315 311 301 301 299 294 297 300 303 301 302 304 306 307 309 310 311 311 311 310 309 309 308 307 308 320 321 326 323 334 332 333 341 341 344 345 346 346 346 347 347 346 343 347 349 349 348 348 348 349 349 348 348 347 346 346 346 346 346 345 345 345 345 345 344 343 343 341 338 337 338 339 338 338 338 338 338 338 338 338 337 341 341 342 342 342 343 341 340 339 339
328 329 324 325 316 317 310 307 305 301 299 297 296 300 302 302 303 306 309 309 309 310 309 308 308 311 310 306 307 309 309 313 323 323 320 330 334 337 340 341 346 346 348 348 345 346 347 344 344 347 348 348 348 348 348 347 347 347 347 347 347 346 345 345 345 345 345 344 344 344 344 344 343 340 338 337 337 338 338 337 337 337 337 337 337 338 337 338 340 341 342 342 342 340 339 339 338
328 327 324 321 318 310 310 305 302 302 296 300 297 300 302 304 304 307 308 309 308 308 308 309 309 312 315 312 311 311 310 315 321 326 330 336 339 338 339 342 344 346 346 346 345 346 347 340 343 346 348 348 348 347 347 347 348 347 347 347 347 346 346 345 345 345 345 344 344 344 343 343 343 340 338 336 337 338 337 337 336 336 336 336 337 339 343 344 344 343 343 342 341 339 338 338 338
325 324 328 322 314 313 308 302 301 298 300 303 299 301 303 305 305 306 307 308 308 308 308 308 308 307 309 312 315 314 320 310 319 324 331 335 338 339 340 342 343 345 346 346 347 347 347 339 342 345 346 348 348 347 347 347 347 347 347 347 347 346 345 345 345 345 345 345 344 344 343 341 340 339 337 336 337 338 337 337 336 336 335 335 340 343 344 343 344 343 342 340 339 338 338 337 337
323 320 318 317 315 316 305 301 299 299 300 303 302 301 304 305 306 306 306 306 307 307 308 308 310 309 307 311 315 322 325 326 321 332 335 337 339 339 340 341 344 344 345 346 348 347 345 340 344 344 344 346 348 347 347 346 346 347 347 347 347 346 345 345 344 344 344 344 344 343 342 341 340 338 336 336 337 337 336 337 336 335 335 335 338 341 343 342 342 340 340 338 338 337 336 336 336
324 319 315 310 309 308 303 301 301 303 299 303 304 304 305 306 307 306 305 305 304 305 307 308 309 309 308 314 308 317 322 326 327 333 334 336 339 339 342 340 343 344 345 345 347 346 341 339 342 343 344 345 347 347 347 346 346 346 346 347 347 346 345 344 344 344 344 343 343 343 341 340 339 337 336 336 336 336 336 336 335 335 334 335 338 339 340 340 340 339 337 336 335 334 334 335 335
320 316 320 314 305 306 302 301 300 302 301 303 303 305 309 306 306 306 304 306 306 307 307 308 310 304 305 308 312 316 317 323 330 332 334 336 338 340 340 341 341 343 344 345 347 347 345 336 341 343 344 345 346 346 347 347 346 346 346 346 346 346 345 344 343 343 343 343 342 342 341 340 339 338 336 335 335 335 336 336 335 335 334 335 336 337 338 338 338 337 336 334 333 333 333 333 333
315 316 307 309 308 302 301 299 300 301 301 303 303 304 305 305 305 306 305 303 305 305 308 310 308 304 307 306 307 313 316 326 332 332 334 336 338 340 340 343 343 343 345 345 346 346 346 339 338 341 343 344 345 346 346 346 346 345 345 345 345 345 345 344 343 343 343 342 342 341 340 339 339 339 336 335 334 334 335 334 335 334 335 334 333 333 334 334 335 334 333 332 332 331 332 332 332
309 313 317 306 303 299 301 299 301 300 301 303 304 305 306 306 305 304 305 304 306 305 308 308 305 305 306 307 309 314 317 327 330 330 333 336 339 339 339 344 345 344 344 347 346 346 345 344 338 337 339 341 343 345 346 346 346 345 345 345 345 345 344 344 343 342 342 342 342 341 340 339 339 338 336 334 332 332 333 333 333 333 333 334 333 333 333 333 332 331 331 330 330 331 331 331 331
308 307 312 304 302 302 300 300 300 301 302 302 302 305 307 305 306 303 303 302 304 305 306 307 306 308 304 306 309 313 320 327 332 332 333 336 337 339 339 343 344 345 346 346 347 346 347 345 345 338 335 336 339 341 342 344 347 347 346 346 345 345 343 343 342 342 341 341 341 340 340 339 339 338 337 335 333 331 331 332 332 331 331 332 332 333 332 330 330 330 330 330 330 330 330 330 330
311 313 306 303 303 302 302 301 301 301 301 301 302 304 307 305 303 304 304 305 305 304 305 308 310 307 303 304 310 317 320 328 331 332 333 336 337 338 340 340 342 343 344 344 344 344 346 345 346 344 338 332 334 335 336 341 344 346 346 346 344 344 343 343 341 341 341 340 340 340 339 338 337 336 335 335 334 333 331 330 330 331 331 330 330 330 329 328 328 328 328 329 329 329 329 329 329
313 314 310 304 304 302 301 302 302 300 300 303 305 305 306 304 305 306 306 303 304 304 307 309 307 308 306 307 307 310 321 330 329 330 332 335 336 336 338 338 341 339 341 341 340 342 342 344 345 345 343 344 344 337 331 334 340 344 345 344 343 343 343 342 341 341 341 340 338 337 336 336 336 335 335 334 333 331 329 328 329 330 330 329 329 328 328 328 327 328 328 329 329 329 328 328 328
313 314 308 307 302 301 304 300 300 300 301 304 304 304 304 306 305 305 305 303 304 307 308 309 310 305 303 304 305 309 324 328 330 330 332 334 334 335 337 336 337 338 337 338 339 339 338 340 342 344 343 343 345 344 346 342 334 338 341 341 341 342 342 340 340 340 338 337 336 334 333 331 331 331 332 332 331 330 329 328 329 330 330 329 329 329 328 327 327 327 328 328 327 327 326 326 325
318 312 308 303 300 300 302 303 302 301 301 305 304 305 304 305 305 304 305 305 306 310 308 305 308 306 307 307 312 321 325 328 328 330 331 332 333 333 335 335 335 335 335 336 336 337 336 339 339 340 342 343 344 346 343 343 333 332 338 339 339 340 339 338 337 337 333 331 330 329 327 330 328 330 326 329 328 329 327 327 329 329 329 329 329 328 327 327 327 326 326 325 324 323 322 321 320
314 316 302 302 300 300 302 301 302 299 303 304 304 304 302 302 305 306 305 307 305 306 306 309 307 309 309 310 313 322 326 328 327 329 330 330 331 330 332 333 333 334 334 335 336 335 336 336 339 339 340 342 343 344 345 344 344 331 333 332 332 334 335 335 333 328 325 324 325 324 325 332 332 332 332 330 324 329 322 324 327 328 328 328 327 327 326 325 325 324 324 323 321 320 317 316 315
313 304 302 301 303 300 304 302 303 305 303 303 303 304 304 302 303 305 307 305 305 307 306 309 309 308 311 310 313 320 324 325 326 327 327 328 329 329 328 330 330 330 332 333 332 333 334 334 336 338 339 340 341 343 345 344 344 339 345 343 341 335 330 328 334 339 333 335 325 329 334 332 333 332 331 328 329 328 326 322 323 326 327 326 325 325 325 324 323 323 322 321 320 319 320 317 315
307 304 304 301 303 304 306 306 306 304 304 304 304 305 305 304 305 306 303 304 304 304 305 307 307 308 311 311 313 318 321 325 326 327 326 326 327 326 329 329 329 329 329 331 330 330 331 332 332 334 337 339 340 342 343 343 344 343 343 343 342 336 337 339 340 339 339 334 332 336 335 336 334 331 331 329 329 322 325 321 323 325 326 325 324 324 323 322 321 320 319 318 317 319 316 315 313
306 307 300 301 305 304 306 306 304 305 305 304 304 304 305 305 305 307 303 303 304 303 303 305 305 306 309 310 312 317 318 322 325 326 325 326 327 327 327 327 328 329 328 330 330 328 328 329 331 333 335 337 339 340 342 342 344 343 342 341 342 341 343 340 339 339 338 336 335 338 337 336 334 332 323 322 323 326 324 320 320 320 321 321 320 321 321 320 319 318 317 317 316 313 311 310 308
306 302 301 302 304 303 303 305 304 304 305 305 304 304 303 304 306 305 304 302 303 304 306 306 306 307 310 311 313 316 316 320 322 325 325 326 327 328 328 329 329 329 330 330 328 328 328 327 328 332 334 336 337 337 339 340 341 343 342 342 341 341 341 341 339 339 338 340 339 337 339 336 334 330 328 326 326 325 325 324 323 322 321 320 318 318 318 319 318 316 313 311 310 309 307 307 306
306 302 302 304 304 304 302 304 303 303 303 305 304 302 303 306 304 304 304 301 302 305 307 308 308 309 313 312 314 316 316 318 320 322 324 325 325 325 328 330 330 330 329 327 328 327 328 328 329 331 332 334 335 337 338 340 340 342 344 340 341 342 342 340 340 340 339 339 339 338 339 336 332 328 326 326 324 324 323 323 323 322 322 320 320 320 321 319 315 312 309 307 306 305 304 304 303
301 302 302 303 303 303 303 303 301 302 304 304 303 305 305 303 304 305 305 304 305 307 308 309 308 310 314 315 316 316 315 317 319 320 322 324 325 326 327 328 326 325 326 329 330 328 328 327 328 329 331 332 334 336 337 338 340 340 340 342 341 340 340 340 340 339 339 340 341 338 336 335 331 329 329 327 324 323 323 324 323 324 324 323 323 322 319 316 312 309 306 304 304 303 302 302 301
304 301 303 301 304 303 303 302 301 302 303 303 305 305 303 303 301 305 303 306 308 308 309 309 308 307 312 315 316 315 315 317 318 320 322 324 325 326 328 326 326 328 328 329 327 327 326 327 328 328 329 331 332 334 335 336 338 339 336 337 340 338 339 341 341 341 341 339 339 338 335 337 334 331 330 329 329 328 326 327 326 324 324 324 323 320 316 313 309 306 304 303 302 301 300 300 299
303 301 302 302 303 302 302 302 301 302 302 304 304 302 303 304 303 302 303 306 308 308 308 308 307 308 308 312 314 314 315 316 318 320 322 324 326 326 327 327 327 326 325 327 326 327 327 327 327 327 328 328 329 331 333 334 336 336 336 336 337 335 339 339 339 339 338 340 340 340 338 339 336 334 332 331 332 332 333 330 328 327 324 322 319 316 314 309 306 304 303 302 301 299 299 299 299
304 302 303 303 303 302 302 302 302 302 303 303 302 302 304 303 303 302 304 307 309 310 308 308 308 307 307 308 313 314 315 316 319 319 320 323 325 324 324 324 325 323 325 327 326 326 327 325 325 325 326 326 327 328 330 333 333 334 335 335 335 330 336 339 339 337 337 338 338 339 337 336 334 333 332 331 328 328 329 330 327 327 326 323 320 313 311 308 305 304 302 301 299 299 298 297 297
305 303 304 303 302 302 302 303 302 303 304 303 302 302 303 303 302 301 308 307 306 307 307 308 307 307 307 308 309 313 315 316 318 320 320 319 318 319 321 322 321 322 323 323 322 323 324 322 322 323 323 324 326 326 328 330 332 333 333 333 333 331 331 332 336 336 337 336 335 335 335 336 333 332 330 328 328 326 323 323 322 321 320 318 316 312 309 306 304 302 300 299 299 299 298 297 297
305 304 303 302 303 304 303 303 302 303 302 303 303 302 304 303 303 301 308 307 308 306 307 307 306 307 308 309 309 313 315 317 318 319 317 317 317 318 320 321 321 321 320 319 320 322 321 320 321 322 322 323 323 324 328 330 330 331 331 331 331 331 329 330 333 332 331 333 334 334 333 332 330 327 325 324 323 321 320 319 317 315 314 314 312 310 309 305 304 303 302 300 299 298 296 296 296
304 304 300 301 302 302 302 302 303 303 302 303 304 302 301 301 300 305 307 306 307 306 307 308 307 307 309 310 310 311 313 316 318 317 317 318 318 319 319 320 320 320 319 319 320 320 319 320 320 321 321 323 323 322 326 329 330 330 329 329 330 329 330 328 327 328 332 331 331 332 331 331 330 327 326 323 320 319 317 316 314 313 313 312 310 309 307 304 303 302 301 300 298 297 297 296 298
304 303 303 299 300 300 303 304 303 302 303 303 303 295 300 303 304 307 306 306 306 305 306 307 308 308 309 310 310 310 312 314 316 316 317 317 318 319 319 320 321 320 319 319 319 318 318 321 321 321 320 321 323 324 326 327 327 328 327 327 328 328 329 328 326 327 326 330 331 330 329 329 329 327 324 321 319 316 315 314 312 312 312 311 310 307 303 303 301 300 299 298 297 296 295 295 294
301 302 303 300 298 298 302 303 302 301 302 302 303 296 299 304 305 306 306 305 305 305 306 307 308 308 309 310 309 310 311 313 314 315 317 318 319 319 319 320 319 319 318 317 317 318 318 318 319 319 319 320 321 321 322 324 326 326 324 322 323 324 325 323 323 324 323 323 326 328 329 327 328 326 323 320 317 316 314 312 312 311 311 311 308 306 303 302 300 298 298 296 296 296 296 295 295
302 297 295 300 298 299 301 302 302 300 300 303 302 296 298 303 304 304 304 305 304 304 306 307 308 308 308 309 309 309 310 312 313 314 316 317 318 317 318 317 317 317 317 317 317 318 317 317 318 317 318 318 319 320 320 321 324 324 321 316 317 316 317 317 317 319 321 319 319 321 323 322 322 320 316 313 312 311 312 312 311 311 310 309 307 305 302 301 300 299 298 297 295 295 295 295 295
301 298 300 298 298 299 299 299 301 301 301 302 301 297 302 302 305 304 303 305 304 304 306 307 307 308 308 308 309 309 310 311 312 312 314 315 316 316 316 316 316 315 315 316 316 317 316 316 315 317 318 317 318 317 315 314 319 319 317 314 313 312 312 311 311 313 314 316 318 318 317 317 316 314 313 312 311 311 310 309 309 310 309 307 305 304 302 302 299 299 298 298 297 295 295 295 295
297 299 296 301 297 297 296 298 301 303 301 299 301 298 299 302 305 305 303 305 304 304 305 306 307 308 308 308 308 308 309 309 310 310 311 313 314 315 315 314 315 315 315 316 317 316 315 315 315 316 317 316 316 314 313 312 312 314 313 311 309 309 309 309 309 309 310 312 311 312 314 315 312 312 312 311 310 309 310 309 309 310 308 307 305 303 302 301 300 299 298 299 298 296 295 294 293
296 297 295 296 297 297 297 297 299 300 300 298 300 299 299 302 304 305 306 305 305 305 305 306 306 307 308 308 308 308 309 309 310 312 311 311 312 314 314 314 315 315 315 316 316 316 316 315 315 314 315 315 314 310 309 308 308 308 308 308 307 307 307 307 307 308 308 309 310 308 309 311 311 311 311 309 309 309 308 309 309 310 307 306 304 302 301 301 301 300 299 298 298 297 295 295 294
297 298 297 297 296 296 296 299 299 300 299 298 298 297 299 301 303 305 306 307 305 305 306 306 306 307 307 308 309 309 309 309 311 313 312 311 312 313 313 313 314 314 315 315 314 315 314 314 313 312 313 314 313 308 307 307 308 307 306 305 304 304 305 304 305 305 306 305 305 306 306 306 307 309 309 309 308 307 307 308 308 308 307 305 302 301 301 301 301 300 299 297 296 296 296 295 294
297 298 297 295 296 297 299 299 299 300 298 297 299 299 299 301 302 304 305 306 305 306 305 305 306 306 307 307 308 309 309 310 314 313 312 311 312 313 313 313 313 313 314 314 313 313 313 312 311 311 310 309 309 308 307 306 306 305 305 306 305 304 302 302 302 302 302 304 304 305 305 305 305 306 307 308 309 308 308 308 308 307 307 305 303 303 303 303 302 301 299 298 296 294 294 294 294
297 297 297 296 298 294 299 299 299 300 297 297 300 299 300 301 302 303 304 304 303 304 305 305 306 306 307 308 308 309 310 314 312 311 310 310 310 312 312 312 311 311 312 312 312 312 312 311 310 310 307 307 309 310 309 308 308 308 307 306 304 302 300 300 300 301 300 301 302 302 303 304 304 305 306 307 309 310 308 308 307 306 305 304 304 304 304 302 302 300 299 296 297 294 293 294 294
298 297 297 296 296 300 299 298 297 299 297 296 299 297 298 300 301 303 303 303 305 305 306 305 305 306 307 308 309 309 311 312 310 309 309 309 310 311 312 311 312 312 312 312 312 312 311 311 311 311 309 308 308 309 309 308 307 305 306 305 303 300 299 299 299 298 299 300 299 300 302 303 303 304 305 307 308 309 309 308 307 306 306 306 304 303 303 302 301 299 298 296 295 296 295 296 296
297 297 295 293 301 294 292 297 298 298 297 296 297 295 297 300 302 303 305 305 305 307 307 307 308 306 306 307 308 309 310 311 308 308 307 307 309 310 311 311 311 312 312 311 311 311 311 310 310 309 308 308 308 307 307 306 303 301 300 300 299 300 297 296 296 296 297 298 298 299 299 300 302 303 305 306 307 309 310 308 307 307 306 306 305 303 302 301 300 299 298 297 297 294 295 295 298
299 299 297 295 297 297 294 295 298 299 298 298 297 297 298 301 301 303 306 308 306 307 307 307 308 310 310 312 312 312 309 310 310 308 307 306 307 309 310 310 311 310 311 311 310 310 310 310 309 309 307 308 308 306 303 301 300 298 297 297 297 296 297 299 295 294 295 296 297 298 297 299 300 301 303 304 306 307 308 309 308 307 306 306 306 304 302 301 301 300 300 298 297 294 293 294 294
297 300 298 297 299 296 297 299 297 294 294 296 298 290 292 302 301 303 304 302 302 305 305 306 307 308 309 308 309 311 312 311 309 309 307 307 307 308 310 310 310 311 310 311 311 310 310 310 310 308 308 307 307 304 302 301 299 298 297 297 297 297 295 295 296 295 294 294 296 297 297 298 299 299 301 303 304 305 306 307 308 307 307 306 306 304 303 302 301 301 300 299 298 298 295 294 293
294 295 300 300 298 298 297 296 297 290 289 298 299 289 286 296 296 300 302 302 302 304 306 306 307 307 309 309 309 309 309 309 310 310 309 307 307 308 309 309 310 310 311 311 311 310 310 309 309 308 307 306 305 303 302 300 299 299 299 300 301 300 298 297 300 297 295 295 296 295 296 297 298 299 300 301 303 304 306 306 307 307 306 306 305 304 302 302 302 302 301 300 300 299 298 294 294
293 297 300 299 299 297 298 297 297 293 299 299 298 296 289 289 296 300 301 301 301 302 304 305 306 307 309 308 309 309 309 308 308 308 308 308 307 307 308 309 310 310 311 311 310 310 309 308 308 308 306 304 302 301 301 301 300 299 300 302 303 304 303 300 298 296 296 294 294 294 295 296 297 298 299 300 301 303 304 305 306 305 305 305 304 303 303 303 303 303 302 303 302 300 299 296 295
297 297 301 299 298 300 298 298 295 296 294 290 295 299 291 290 297 301 301 298 299 300 301 303 305 309 308 308 308 309 308 308 308 307 307 307 307 307 308 309 310 310 310 310 309 309 309 309 308 307 305 303 302 301 300 300 301 301 301 303 302 304 302 298 296 295 293 294 293 294 294 295 296 297 298 299 300 301 302 303 304 304 303 302 302 303 303 302 301 300 300 299 299 299 299 299 296
297 300 301 300 301 300 299 296 295 294 291 287 293 296 288 289 296 296 299 298 298 299 301 303 306 308 308 308 308 305 305 305 306 306 307 307 307 308 309 310 310 310 310 311 310 309 308 308 307 305 304 303 302 300 300 300 301 301 302 303 303 300 297 295 295 294 293 293 293 293 293 294 295 295 296 297 298 299 301 301 302 302 301 301 300 301 300 300 300 300 299 299 300 299 298 297 296
301 302 301 299 299 298 297 297 294 291 286 289 296 295 292 286 295 296 294 297 299 301 302 304 307 309 307 306 306 307 304 304 304 304 305 306 307 308 308 309 309 310 310 310 309 308 307 307 306 304 303 302 300 299 299 299 300 302 303 303 303 300 297 295 293 292 292 293 293 293 293 293 294 294 295 296 297 298 299 300 300 300 299 298 298 299 298 298 298 298 298 298 298 297 296 297 295
303 300 296 297 295 296 294 292 292 285 284 290 291 295 295 285 291 298 300 302 303 302 301 302 305 306 307 307 305 304 304 303 303 303 303 304 305 306 307 308 308 309 309 308 308 307 307 306 305 304 302 301 300 299 298 298 299 300 300 301 302 299 297 295 295 295 293 293 294 293 293 293 293 294 294 295 295 296 297 297 298 297 296 297 297 297 296 296 296 296 295 296 296 296 296 294 294
301 297 295 288 287 288 285 289 284 285 284 289 290 292 290 290 294 299 300 301 302 303 304 304 305 306 308 307 306 305 304 303 303 303 303 303 304 304 306 307 308 308 307 307 307 307 306 306 305 303 301 301 299 298 297 297 298 298 298 299 298 297 296 296 296 295 295 294 294 293 292 292 292 293 293 293 294 295 295 295 295 295 294 295 295 295 295 295 294 294 294 295 294 294 293 294 292
296 293 291 287 283 283 281 285 287 287 288 288 291 294 287 293 296 300 300 302 303 304 305 307 307 307 307 309 308 305 304 304 303 304 303 303 304 305 306 307 308 308 307 307 306 306 305 304 304 302 301 300 299 298 297 297 297 298 297 297 297 296 296 295 295 295 294 295 295 294 293 293 292 293 293 293 294 294 294 294 294 294 294 294 294 294 294 294 295 293 294 293 294 293 294 294 293
295 299 296 290 288 285 281 284 282 284 286 285 291 287 286 287 293 298 302 303 303 304 305 308 308 310 310 309 309 307 305 304 304 304 304 304 304 305 306 307 308 308 307 307 306 306 305 303 302 301 300 299 298 297 297 297 297 296 296 296 296 296 295 294 295 296 295 295 295 295 294 294 293 293 293 293 293 293 293 293 294 293 293 293 293 293 294 294 294 293 293 292 291 292 292 291 291
298 300 301 293 290 294 286 287 286 285 286 286 285 286 292 293 301 302 304 303 302 304 304 304 305 305 307 307 307 306 305 304 304 304 304 304 305 305 306 307 307 308 307 307 306 306 304 303 302 301 301 300 299 297 297 297 296 295 295 294 294 294 294 295 295 294 295 296 295 295 295 294 294 294 293 292 292 293 292 292 292 292 292 292 292 292 292 292 293 291 290 290 290 292 290 290 289
295 296 290 293 298 295 288 285 286 285 284 282 289 289 293 298 298 300 300 300 301 302 303 302 303 305 306 307 308 308 306 305 304 305 304 304 304 305 306 306 307 307 307 306 306 306 305 303 302 301 301 300 299 298 298 297 296 295 295 293 293 293 293 293 294 294 294 295 295 295 295 295 294 293 292 292 291 292 292 292 291 291 291 292 291 291 291 291 291 290 289 289 289 289 289 288 288
296 289 294 299 302 299 291 284 287 285 282 284 289 286 288 289 286 300 300 299 300 301 301 302 304 306 306 307 309 310 309 306 305 305 306 305 304 304 306 307 307 307 307 306 306 306 306 304 302 300 300 299 299 298 298 297 296 294 294 293 292 292 292 293 294 294 295 294 295 294 294 294 293 293 292 292 291 291 291 290 290 290 290 290 290 290 290 290 290 289 289 288 288 288 287 287 287
298 294 302 292 287 285 290 287 280 280 281 283 288 289 289 291 290 295 297 297 299 300 302 302 302 304 306 307 308 310 308 306 304 304 305 304 304 304 305 306 307 308 307 307 306 306 306 304 303 302 300 299 299 299 298 297 296 295 294 292 292 292 292 292 293 294 294 294 294 294 293 293 292 291 290 290 290 289 289 290 290 289 289 289 289 289 289 289 289 288 288 287 287 287 286 285 286
300 301 296 300 294 289 287 287 287 287 282 282 284 287 285 294 294 297 297 298 300 300 301 302 303 304 305 306 308 311 307 305 305 305 305 304 304 304 304 305 306 307 307 306 306 306 305 304 303 302 301 300 299 298 297 296 295 295 295 293 292 291 291 292 293 293 293 293 293 293 293 292 291 290 290 290 289 289 289 289 289 288 288 288 288 288 288 288 288 287 286 286 286 286 285 284 284
290 291 291 294 290 293 292 294 288 285 283 283 282 282 287 295 299 298 299 300 301 301 301 304 304 305 306 308 312 312 309 307 306 305 304 304 304 303 304 305 306 307 307 306 306 305 305 303 302 302 301 300 298 297 296 295 294 294 293 292 291 291 290 291 292 293 292 293 293 293 292 292 290 289 289 289 289 289 288 288 288 288 288 287 287 287 287 287 286 285 285 284 284 284 283 283 283
293 292 290 292 289 287 285 283 293 287 286 283 283 282 289 298 300 301 300 301 302 303 303 304 306 306 308 314 309 308 308 307 306 305 304 303 303 303 303 304 305 306 306 305 305 305 304 302 301 301 301 300 298 297 296 295 295 294 293 292 291 291 291 291 291 291 291 292 292 292 292 290 289 289 289 289 288 289 288 288 288 287 287 287 287 286 286 286 285 284 283 284 283 283 282 282 281
Wind_Speed
10 8 5 6 6 5 6 5 5 4 4 5 5 4 5 2 4 7 6 7 6 4 4 3 2 1 5 6 7 5 7 7 7 6 5 5 6 9 7 7 8 9 8 7 6 7 8 6 3 1 5 7 8 8 8 8 9 9 10 10 11 11 12 12 13 13 14 14 15 16 16 17 17 16 16 16 16 16 15 15 15 14 14 15 16 16 16 16 17 18 19 20 19 19 20 20 19
7 5 5 5 5 4 3 1 4 4 3 5 5 3 7 6 6 5 6 4 7 6 3 4 3 3 3 6 5 5 6 9 7 9 9 9 10 8 8 7 10 11 9 9 7 6 8 7 3 2 7 8 7 7 8 8 9 9 10 11 11 11 13 12 13 13 14 14 15 15 16 16 17 16 15 15 16 16 15 15 15 14 15 15 16 15 16 17 19 19 19 19 20 19 19 19 18
6 6 4 4 5 5 2 3 4 2 5 5 5 5 6 6 4 5 7 8 8 7 5 5 4 1 0 3 4 5 6 5 9 8 8 11 12 7 8 5 7 9 10 8 8 6 7 6 4 3 7 7 8 7 8 9 9 10 10 10 10 11 12 12 13 13 14 14 15 15 16 16 16 16 15 15 16 16 15 14 15 15 15 14 15 15 16 17 17 18 19 18 19 20 19 18 18
8 5 5 3 4 4 5 4 3 3 5 5 5 6 5 5 7 8 8 9 8 6 5 5 3 3 4 1 5 1 5 5 6 5 7 5 7 8 6 7 3 8 7 7 9 8 6 6 6 4 6 7 7 7 7 8 9 10 10 11 12 11 12 12 13 13 14 14 14 15 15 15 16 15 15 15 15 15 15 14 14 15 15 14 15 16 16 16 16 17 18 19 20 19 18 17 17
6 4 4 5 6 3 4 2 2 4 5 2 5 7 4 6 9 9 8 8 6 3 1 2 2 2 3 3 3 3 6 7 8 6 7 8 5 6 6 6 8 9 8 8 10 9 7 8 6 6 4 8 7 8 8 8 9 9 9 10 12 11 12 12 13 13 14 14 14 15 15 16 16 15 15 15 15 15 15 15 14 14 14 13 16 17 17 19 19 19 20 20 19 18 17 16 16
6 5 3 5 3 3 3 5 2 5 6 5 6 7 6 8 9 10 9 6 4 1 2 2 4 4 4 2 4 2 5 1 3 5 4 7 6 4 5 4 7 8 8 8 8 7 9 8 5 5 5 7 8 8 8 7 9 9 9 10 11 12 11 12 13 13 14 14 14 14 15 15 15 15 15 15 15 14 14 15 15 13 12 14 18 18 18 18 20 20 19 18 18 17 16 15 15
2 3 3 4 2 2 5 3 4 4 5 6 8 8 8 8 9 10 9 6 3 1 1 1 1 3 5 4 4 5 5 5 1 6 7 4 6 4 5 7 7 8 8 7 8 9 10 8 5 5 4 3 9 8 8 9 9 9 9 10 11 12 11 12 13 13 14 14 14 14 15 15 15 15 15 15 15 14 14 14 14 13 13 15 15 17 18 19 20 19 19 18 17 17 16 15 15
2 3 2 5 2 4 1 3 5 3 5 4 4 8 8 8 8 8 9 6 7 4 6 3 4 5 6 2 1 4 5 6 6 6 6 5 5 5 4 7 7 8 7 6 7 9 10 7 5 4 4 4 2 9 8 8 8 8 8 10 11 12 12 12 12 13 13 13 13 13 14 15 15 15 15 15 14 14 14 14 14 14 14 16 16 15 17 18 19 18 18 18 17 16 15 15 15
3 5 1 4 3 2 2 4 5 4 6 4 5 8 7 8 7 7 7 3 6 1 5 5 2 5 6 6 5 5 5 4 6 6 6 5 5 4 3 4 7 7 6 7 6 8 8 6 7 6 5 3 3 8 8 8 8 8 8 9 10 11 11 11 12 12 13 13 13 13 14 15 15 15 15 15 14 14 14 14 14 13 14 15 14 15 16 16 18 18 17 17 17 16 15 15 15
3 3 4 3 1 2 1 4 4 4 5 4 5 8 6 7 6 4 7 5 3 4 4 3 1 3 3 4 6 5 4 5 6 6 6 4 4 5 3 2 5 7 7 7 6 9 8 7 6 6 5 5 4 6 8 7 8 8 8 8 10 11 11 12 12 12 13 13 13 14 14 15 15 15 15 15 14 14 14 13 13 13 14 15 15 15 15 16 16 17 17 17 16 16 16 16 16
4 3 3 4 3 2 2 5 4 5 6 5 5 6 7 6 7 5 4 3 4 3 5 2 5 3 4 3 4 3 5 5 4 6 5 4 3 4 3 4 2 2 7 7 7 7 7 8 7 6 5 5 4 6 4 3 8 8 7 8 10 11 11 11 12 12 13 13 13 14 15 15 15 15 15 15 14 14 14 14 13 14 15 16 15 15 16 16 16 18 18 18 18 17 17 17 17
3 5 4 5 2 2 3 3 4 6 6 6 6 7 5 7 6 6 6 5 6 4 5 8 1 2 4 3 4 5 6 5 4 6 4 3 3 3 2 3 3 5 5 4 5 5 5 8 7 6 5 4 4 5 4 2 5 6 7 8 10 11 11 11 12 13 12 13 14 15 15 15 15 15 15 15 15 14 14 14 14 14 15 16 16 16 17 17 18 18 18 18 18 18 17 17 17
4 3 5 5 3 1 4 2 4 4 6 6 8 7 7 8 7 6 6 3 6 6 6 7 3 3 3 3 4 6 7 7 7 6 3 3 4 4 4 5 4 4 7 7 6 5 3 5 6 6 6 4 3 4 4 3 5 6 7 8 9 10 11 11 11 12 13 14 15 15 15 15 15 14 15 15 15 15 15 15 15 15 15 15 16 17 17 18 18 18 18 18 18 17 18 17 17
3 0 4 1 0 1 2 4 3 4 4 7 6 9 8 7 7 1 5 5 7 4 5 4 2 2 1 5 5 6 7 8 8 5 4 4 3 2 4 6 6 4 4 6 6 5 5 3 4 5 6 6 6 3 2 2 5 5 8 8 8 9 10 11 11 11 12 13 14 13 12 12 13 15 15 15 15 14 14 15 16 16 16 16 16 17 17 18 18 18 18 17 18 17 17 17 17
2 1 3 0 2 3 2 3 3 4 4 11 8 11 9 2 2 2 4 6 6 7 4 1 2 2 3 5 6 5 8 8 7 6 5 5 4 3 4 4 5 6 5 4 5 5 5 6 4 5 4 4 5 6 5 5 4 4 8 9 8 9 9 9 10 11 12 12 12 13 13 12 12 12 12 13 15 13 12 12 14 15 17 17 17 18 18 18 18 18 17 17 17 18 17 17 17
3 3 3 4 4 5 5 2 2 3 5 9 9 9 9 5 1 5 2 6 4 2 1 3 2 2 4 4 8 8 10 9 7 7 6 6 4 4 4 5 4 5 6 5 5 5 5 5 4 4 4 3 4 5 6 7 5 6 7 9 8 9 9 9 11 11 12 12 12 13 15 14 12 10 11 11 11 11 11 12 12 15 16 16 16 17 17 17 17 17 17 17 18 18 18 18 17
2 3 4 4 4 5 6 3 5 2 8 8 9 10 9 7 5 1 2 1 4 4 4 1 3 1 5 6 7 8 9 8 8 8 8 7 5 3 4 4 5 4 3 4 4 5 6 5 7 5 5 6 4 4 4 4 6 7 6 9 9 9 9 10 11 11 12 12 12 13 11 11 11 10 9 10 11 10 11 12 13 15 16 16 16 17 17 17 18 18 18 18 18 18 16 17 16
2 5 5 4 1 5 6 3 5 5 4 8 10 10 8 7 6 5 3 4 5 3 6 5 1 1 6 7 6 8 9 9 9 10 9 8 7 6 5 6 6 6 6 5 3 4 5 5 5 6 5 5 5 3 3 4 5 7 8 8 7 8 9 10 10 10 10 9 12 10 8 9 8 8 9 10 10 11 10 11 13 14 16 16 16 17 17 17 16 16 15 14 12 10 8 7 8
4 4 4 3 2 4 3 3 5 0 2 10 9 9 7 2 9 6 6 7 8 7 8 7 7 7 7 7 8 9 9 10 11 10 10 11 9 10 7 6 7 7 6 6 4 5 3 4 3 4 4 5 5 4 3 4 6 7 8 8 7 10 8 10 10 10 9 10 10 8 7 6 8 9 8 8 8 11 11 11 13 13 15 14 15 16 16 16 16 15 14 13 10 8 7 6 6
0 4 5 1 5 6 6 3 5 5 4 8 9 7 6 4 3 6 7 5 7 9 6 9 9 10 10 9 9 10 10 10 11 11 11 11 10 10 10 10 9 8 7 5 5 4 4 3 3 2 4 3 4 5 4 5 5 7 5 5 7 8 9 9 9 9 9 11 9 6 5 7 8 7 12 16 12 10 8 11 13 14 14 13 14 12 14 14 14 12 11 9 7 7 6 7 7
3 5 3 4 2 4 4 5 6 5 4 5 7 6 6 4 3 6 5 7 7 8 8 7 8 10 13 12 11 11 11 11 11 12 12 11 10 8 9 9 8 7 7 6 3 5 5 4 3 4 3 3 3 4 4 6 6 6 5 3 6 8 8 8 8 10 7 9 9 7 5 6 8 9 10 8 8 9 9 9 9 8 8 9 9 9 8 6 6 6 6 7 7 7 7 7 7
2 2 4 2 2 3 4 4 4 4 3 2 6 8 7 6 2 7 7 8 4 1 4 5 3 5 12 12 12 11 12 12 12 13 13 13 12 10 8 8 7 4 5 6 6 6 6 5 4 3 4 4 4 5 5 3 1 5 6 8 7 6 5 7 7 6 6 6 8 7 6 8 9 9 10 9 8 8 9 9 8 8 8 8 8 7 6 6 6 6 7 7 7 7 8 8 8
3 4 3 3 5 3 3 2 3 4 1 3 6 3 6 6 5 8 9 12 1 4 7 7 6 5 6 9 12 11 12 13 13 14 13 13 12 11 10 8 7 6 5 7 7 5 6 6 5 3 4 4 5 4 5 4 4 3 3 6 7 7 7 8 7 7 8 7 6 7 6 8 8 9 9 9 9 8 8 8 8 7 7 7 6 6 7 6 6 6 7 8 8 8 8 8 8
6 3 4 4 3 5 3 4 3 1 2 1 3 4 5 4 9 3 9 12 10 6 5 6 6 4 4 9 11 12 12 13 13 12 12 12 12 12 9 8 7 7 7 8 6 6 5 6 6 6 5 5 4 5 6 6 5 3 1 3 5 7 8 8 6 6 7 8 7 7 6 7 8 8 9 9 8 7 7 6 6 6 6 6 6 7 7 7 7 7 8 8 8 8 8 8 7
3 4 4 4 4 5 4 4 2 1 2 2 1 4 6 3 3 2 10 11 11 6 5 4 4 4 5 7 10 10 10 11 11 11 9 8 9 9 8 6 7 6 7 8 6 7 7 5 6 6 7 7 6 6 6 7 6 4 2 2 3 4 6 8 7 7 6 6 7 7 5 5 6 6 7 7 6 5 4 5 6 6 6 6 6 6 7 8 8 7 7 7 7 8 7 7 7
2 7 6 5 5 5 5 4 2 2 2 0 4 5 2 0 4 10 16 10 3 6 3 4 4 5 7 8 9 9 10 11 10 11 11 7 6 9 8 7 7 8 8 8 6 5 5 5 6 7 7 6 6 7 6 7 8 5 4 4 3 1 1 4 6 5 5 5 5 6 7 6 5 8 7 7 9 8 6 6 6 5 6 6 6 6 6 7 7 8 7 7 8 7 8 7 7
4 8 6 6 6 5 2 3 4 2 2 2 4 5 4 2 2 5 3 5 3 3 5 5 5 7 8 7 8 9 9 10 11 9 9 8 8 8 9 8 8 8 7 8 6 5 4 3 4 4 5 5 5 5 6 7 8 7 5 4 3 3 1 2 2 3 4 6 6 4 3 3 8 5 6 6 5 6 6 5 5 5 5 5 5 6 5 6 8 8 8 7 7 7 7 6 7
6 8 8 7 4 3 4 3 4 3 3 2 4 7 1 4 4 12 3 4 4 4 7 6 6 7 7 8 7 7 7 8 8 9 12 12 9 9 10 9 9 8 7 7 5 5 4 5 4 5 5 5 6 7 6 7 8 5 5 4 4 4 4 4 1 3 3 4 5 7 7 6 6 7 8 7 7 7 6 5 5 5 6 6 7 8 7 5 7 8 9 7 7 8 8 7 6
6 4 6 5 4 4 4 4 3 3 1 0 2 8 11 9 11 14 6 6 5 4 5 6 7 7 7 7 7 7 7 8 8 9 11 10 8 9 10 10 9 9 6 7 7 5 5 4 4 4 3 4 5 8 8 7 6 4 4 5 5 4 5 5 4 2 3 6 6 7 8 8 8 8 6 8 8 7 7 7 6 6 6 8 8 10 10 7 7 8 8 6 6 7 8 7 6
3 3 1 6 6 6 7 4 2 4 2 1 2 5 4 14 18 5 7 5 4 4 7 7 6 7 7 7 7 7 7 8 9 9 8 9 9 9 10 10 10 8 6 6 6 6 5 3 2 2 2 4 5 6 6 5 5 5 4 5 5 5 5 5 5 4 3 3 5 7 7 9 9 8 9 9 8 7 8 8 8 7 7 8 8 8 9 6 7 8 7 7 7 7 7 7 7
4 3 2 4 6 4 5 4 5 6 4 3 2 6 7 3 6 8 5 5 6 7 8 8 7 7 7 7 7 8 9 9 10 10 10 9 8 7 9 9 9 8 6 7 8 7 7 4 3 2 3 5 4 4 2 4 6 6 4 5 5 4 3 2 3 3 3 3 2 1 6 9 9 9 10 10 10 10 9 9 9 8 8 8 7 6 8 7 6 8 6 8 7 7 7 7 7
3 5 6 4 6 5 5 3 4 6 4 5 5 7 10 11 6 3 4 4 5 7 7 7 8 8 8 7 8 8 8 9 10 10 11 10 9 8 9 9 9 9 8 7 7 7 7 6 5 4 6 6 6 6 4 1 3 4 4 4 2 2 2 1 2 3 4 4 3 3 3 5 6 8 7 7 7 6 8 8 8 8 9 8 7 7 7 7 6 6 6 7 10 8 8 8 7
4 6 2 5 5 4 5 3 1 1 3 6 10 6 4 2 5 4 3 6 6 6 7 6 8 9 8 8 7 7 7 9 9 11 11 10 9 8 9 10 9 9 8 8 8 8 7 7 6 7 7 7 6 5 2 2 3 4 4 3 3 3 3 2 2 2 2 4 4 4 4 5 6 7 7 7 8 8 8 8 8 9 9 8 8 8 6 6 7 7 7 7 8 9 9 9 8
6 5 5 1 5 3 4 4 2 1 4 5 10 9 11 10 4 6 7 7 6 6 8 9 8 8 9 8 8 8 9 9 11 12 13 12 9 11 9 9 9 9 8 8 8 8 8 7 6 7 6 6 6 4 4 3 2 4 4 4 3 4 3 2 2 2 2 2 2 4 5 6 6 7 8 7 8 7 8 9 8 7 8 9 9 7 7 7 6 7 9 8 8 8 8 9 9
5 6 6 5 5 6 3 2 4 3 4 8 8 12 15 14 14 13 8 10 10 11 10 11 11 11 10 9 9 10 9 10 11 11 13 13 12 12 10 10 9 9 7 9 8 7 7 6 7 7 6 7 7 4 4 4 4 4 4 4 3 3 3 3 2 3 3 3 3 3 4 6 8 8 9 8 9 9 9 9 8 7 7 7 8 9 9 7 7 8 9 10 8 7 8 8 9
4 2 4 2 3 5 6 5 4 1 5 7 10 11 13 12 13 12 12 12 11 12 12 11 11 11 12 11 10 9 9 11 9 9 13 12 11 11 10 9 9 8 8 8 9 8 8 7 7 7 8 7 7 5 4 4 4 4 4 3 3 2 3 3 2 3 2 3 2 2 3 4 4 6 9 9 9 9 10 10 10 10 8 8 9 9 9 8 9 11 10 11 11 9 8 9 9
2 2 3 4 3 3 7 5 4 0 4 10 12 13 15 16 13 13 13 12 14 12 13 13 12 11 11 11 12 11 10 10 7 9 11 12 12 11 10 9 9 10 9 10 9 9 9 8 8 9 7 7 6 6 5 5 5 4 3 4 4 4 3 2 2 2 1 3 4 3 3 3 4 5 6 7 8 10 9 10 11 9 8 8 8 9 8 10 9 9 9 8 11 11 9 8 9
3 2 3 4 3 5 4 3 3 2 3 5 6 9 15 17 14 15 14 14 17 17 15 15 15 14 12 13 13 12 10 6 10 8 10 11 10 11 11 9 11 12 11 11 11 10 9 10 10 9 7 6 6 7 6 6 5 5 4 4 4 4 4 3 3 3 1 2 3 4 3 4 5 5 4 6 8 9 9 8 9 9 8 7 8 8 8 9 9 9 10 9 7 10 9 9 9
2 4 2 3 4 2 6 5 2 2 2 8 8 10 14 17 16 16 16 17 15 15 15 16 16 14 13 12 12 11 9 9 9 9 11 11 12 13 11 10 10 11 11 11 10 10 10 10 10 10 7 7 6 6 6 6 5 3 2 4 5 4 2 2 2 3 3 3 2 3 4 4 5 4 4 5 6 8 9 9 9 8 9 9 8 8 10 10 9 11 10 10 10 6 8 7 7
3 5 4 5 3 2 3 4 1 4 3 7 10 12 14 18 17 19 19 15 14 13 14 16 15 16 16 14 11 9 10 9 11 12 12 12 12 12 11 11 11 11 10 11 11 11 9 9 10 10 8 7 7 6 5 5 7 7 7 5 6 4 3 2 4 3 2 4 3 3 3 3 3 5 5 5 5 7 9 9 9 9 9 9 9 10 10 10 10 9 9 9 9 10 6 4 3
6 5 5 6 2 1 3 3 4 4 2 2 10 12 12 12 11 8 6 4 6 9 10 14 14 12 12 7 6 8 9 8 9 11 11 12 13 13 13 12 10 11 11 11 11 10 7 10 11 11 8 7 7 7 7 7 7 7 6 7 6 6 5 4 3 2 2 2 3 3 3 2 3 4 4 4 5 6 7 8 9 10 10 9 8 9 9 9 10 9 9 9 9 9 9 5 4
5 8 9 6 3 4 2 4 7 5 5 3 6 7 5 3 5 5 3 2 5 7 9 12 12 12 10 10 10 8 8 10 10 10 13 13 13 12 12 12 12 11 11 10 10 10 9 9 10 11 8 7 7 8 8 7 6 7 7 6 5 3 4 4 6 7 6 5 5 4 4 3 3 3 3 4 4 5 6 7 8 9 10 9 8 8 9 9 9 9 8 8 8 7 9 8 6
7 1 2 7 3 2 3 5 4 4 4 3 2 4 10 4 11 9 8 7 7 6 9 12 11 8 8 7 6 7 8 8 9 8 9 11 12 12 13 13 12 11 10 10 10 10 10 9 10 10 8 7 7 8 9 6 7 6 8 8 8 8 7 4 3 2 3 3 4 5 4 3 3 4 3 3 4 5 6 6 7 8 8 8 8 9 9 10 9 8 8 8 7 7 7 7 7
6 3 2 1 2 2 3 3 4 7 5 7 6 6 9 11 9 13 14 10 8 8 10 13 9 8 5 4 5 4 4 5 6 8 8 9 11 12 13 12 12 11 10 10 10 9 11 11 11 11 8 7 6 7 8 7 7 7 7 6 6 6 6 8 7 6 4 4 5 5 4 4 3 3 4 3 4 5 6 6 7 7 7 7 8 8 9 8 7 6 7 6 5 6 6 5 6
2 2 3 3 2 1 1 2 4 3 6 7 5 5 4 9 3 2 10 8 7 9 14 11 6 2 3 2 2 4 2 2 4 5 7 8 10 10 11 11 11 11 10 10 10 9 9 10 11 11 9 8 8 9 9 8 7 7 6 6 5 4 4 5 5 4 5 5 6 5 5 5 4 4 3 4 4 5 5 6 6 7 6 7 7 6 7 7 8 8 6 5 5 5 4 4 5
2 3 4 6 4 2 1 3 3 4 4 8 5 6 4 15 6 7 5 7 9 12 10 8 2 4 2 2 3 2 3 2 2 4 5 7 8 9 9 10 11 10 10 10 10 9 9 11 11 11 10 8 8 10 9 9 8 7 7 6 7 6 5 5 5 5 5 5 6 6 5 5 4 4 4 4 4 5 5 6 5 6 6 6 5 5 6 7 7 6 5 4 4 4 3 4 4
9 6 6 4 2 2 2 1 3 3 6 7 6 8 3 7 7 9 9 8 11 7 6 4 4 4 4 4 3 3 3 4 3 3 4 6 6 8 9 10 11 10 9 10 10 10 10 12 12 11 11 8 9 10 10 10 9 8 8 8 8 8 7 7 7 5 5 5 6 6 6 5 5 5 4 4 5 5 5 5 5 5 5 4 5 6 5 5 6 5 4 5 4 4 4 4 4
5 4 4 3 3 3 3 3 2 4 7 2 5 1 5 5 3 6 4 1 2 4 4 3 2 1 3 3 4 4 4 4 4 5 5 7 7 8 9 10 11 12 11 11 10 10 11 12 12 11 10 10 10 10 10 9 8 7 5 6 8 6 8 8 9 11 9 9 9 8 6 6 6 5 5 5 5 5 5 4 5 5 5 5 6 5 5 5 5 5 5 4 4 4 4 5 4
3 6 5 4 3 2 4 4 4 7 7 3 3 1 3 17 14 2 2 3 5 4 2 1 1 1 3 5 6 5 5 5 5 5 6 7 8 9 10 11 11 12 12 12 11 11 11 12 14 12 11 11 10 9 10 9 8 6 6 6 4 5 5 4 6 9 8 8 8 8 8 7 6 6 5 6 5 6 5 5 5 4 4 4 5 6 5 6 6 5 5 5 4 4 4 4 4
8 9 8 6 6 6 8 6 2 2 3 1 4 2 7 13 11 12 16 15 11 6 5 4 5 5 3 5 6 6 5 6 6 6 7 7 8 8 10 11 11 11 12 12 11 11 11 11 14 12 11 10 9 9 10 10 9 8 7 6 5 5 5 4 3 6 8 6 6 8 8 8 7 8 7 6 6 6 5 5 5 5 5 6 6 6 6 6 5 5 5 5 5 4 4 5 5
12 8 9 7 5 4 6 5 7 4 1 3 4 0 6 1 2 6 3 5 4 2 2 4 5 4 3 3 4 7 7 6 6 7 7 8 9 10 10 11 11 11 12 11 11 11 12 11 12 11 11 10 10 11 10 10 8 8 7 6 5 4 5 4 4 4 6 7 7 7 7 6 6 7 7 6 7 6 6 6 5 6 6 6 6 6 5 6 5 6 5 5 5 4 5 5 5
7 5 2 5 9 5 9 2 3 2 1 2 3 7 4 7 7 6 4 3 5 5 7 7 8 7 6 6 8 8 8 8 8 7 7 8 9 10 9 10 10 10 12 11 12 11 12 12 12 11 12 11 11 11 10 10 10 7 8 8 7 6 5 5 4 5 7 6 6 7 7 7 6 6 6 8 7 6 6 6 6 6 7 7 6 7 6 6 5 6 6 5 6 3 6 6 5
7 6 6 5 6 1 1 1 3 1 2 10 4 8 11 10 18 20 19 16 13 10 7 5 6 8 8 9 8 7 8 8 8 7 7 9 9 10 10 10 10 11 11 12 12 12 13 13 12 12 12 10 12 12 11 11 10 9 10 8 7 8 8 8 8 8 8 5 5 6 6 6 6 6 6 7 7 6 6 7 7 7 6 6 7 6 6 6 6 6 6 6 6 5 6 5 4
6 5 7 4 1 4 3 6 2 4 9 7 4 10 13 3 11 8 4 5 7 8 9 9 9 8 9 8 7 4 6 7 8 8 8 10 10 11 10 10 11 12 12 12 12 12 12 12 13 12 11 12 12 11 11 10 10 9 9 9 7 8 9 9 8 8 7 5 6 5 6 5 6 6 6 6 7 7 6 6 6 6 6 6 6 6 6 7 6 6 7 6 5 6 6 5 4
3 1 3 6 4 5 8 3 8 8 7 6 9 12 13 13 17 5 2 6 5 8 8 9 11 12 10 9 10 4 6 7 8 9 8 8 9 10 11 11 11 11 11 11 11 11 11 11 12 13 12 12 12 10 10 9 9 7 7 8 9 7 5 7 6 6 5 6 6 6 7 7 7 7 7 8 8 7 7 6 6 7 7 7 6 7 7 6 6 7 6 6 5 5 6 5 4
2 2 2 2 2 4 7 8 2 3 8 5 7 9 11 12 10 12 14 12 9 7 9 9 11 11 9 8 8 6 7 7 8 8 7 8 8 10 11 11 12 12 12 11 11 11 12 12 12 13 12 11 11 10 10 10 9 8 8 7 7 6 6 6 7 6 7 7 8 7 8 8 8 7 7 9 9 9 8 8 7 7 8 7 7 7 6 7 7 6 7 6 5 5 6 6 5
7 6 7 4 3 3 4 2 5 4 6 7 8 11 11 8 5 9 7 7 7 7 7 7 7 9 9 7 1 4 4 4 5 7 7 7 7 8 9 9 9 10 10 10 11 12 12 12 12 13 14 13 13 12 11 9 8 9 10 10 9 8 9 9 8 8 7 7 7 7 7 7 7 8 8 9 9 9 9 8 8 8 8 8 8 8 6 7 7 7 6 7 7 6 7 6 6
13 14 14 14 10 6 6 8 3 0 4 6 6 12 12 4 4 1 3 2 3 6 5 5 7 9 8 4 4 5 5 6 6 7 10 10 10 9 8 8 8 10 11 13 12 11 12 13 12 13 14 13 13 12 11 10 9 8 11 10 10 9 10 10 11 10 8 7 7 7 7 8 7 8 9 9 10 9 8 9 9 9 8 8 8 8 8 7 8 8 7 6 6 7 7 7 7
Wind_Direction
278 245 244 234 245 248 269 208 239 129 231 112 128 212 86 105 96 148 117 160 155 63 51 119 57 148 335 5 347 6 31 350 27 343 56 101 147 112 101 135 147 143 139 147 137 141 137 115 122 190 150 118 111 112 115 115 118 114 113 111 113 108 101 96 88 83 82 80 77 75 73 71 69 68 64 64 68 69 68 72 76 77 79 80 80 82 86 86 83 82 84 81 79 77 72 67 64
268 277 250 232 242 252 206 108 269 143 127 131 74 73 113 116 201 141 141 62 48 99 102 86 95 61 6 329 318 293 82 50 40 73 88 117 137 127 125 151 149 147 146 140 140 141 132 119 66 179 135 123 115 118 122 121 122 121 119 120 119 110 102 99 91 87 84 81 77 76 73 71 70 69 68 67 70 72 71 75 79 80 79 78 81 86 87 86 87 84 82 83 81 78 73 68 65
283 266 222 215 232 240 303 219 256 171 174 113 102 76 129 159 137 89 75 83 87 103 101 90 92 129 223 224 215 345 69 78 91 75 88 139 137 116 121 132 139 139 140 135 134 138 136 107 52 124 132 121 114 115 128 131 128 124 124 126 115 107 104 100 94 90 86 81 78 76 74 72 70 70 69 69 70 73 75 76 79 80 78 77 82 85 84 82 84 83 82 82 84 79 75 71 69
276 267 268 242 229 205 239 217 294 272 65 92 120 133 166 126 100 94 91 95 98 109 131 132 183 56 307 261 27 202 85 93 47 82 130 133 57 121 112 121 170 136 132 140 135 131 140 105 51 71 132 122 116 115 123 130 130 125 126 121 116 109 108 102 97 92 88 84 81 77 74 71 71 72 70 70 73 75 75 76 79 81 82 86 87 85 91 89 84 87 88 86 81 78 77 74 72
258 240 243 262 282 210 301 353 314 288 106 16 111 140 128 116 116 115 107 107 105 102 243 114 162 79 8 340 360 325 64 90 101 36 85 78 92 97 124 149 156 139 145 143 135 130 110 75 60 36 139 126 120 119 120 126 124 120 120 121 120 119 109 104 100 96 91 89 84 79 77 74 73 72 72 72 75 77 77 76 75 77 83 85 85 84 87 90 89 87 83 79 80 80 77 76 73
254 247 211 260 278 8 258 208 153 65 45 348 128 127 136 116 127 124 126 131 110 180 17 233 343 149 161 67 4 24 358 167 73 84 27 86 91 106 119 200 154 148 142 143 130 136 121 91 69 68 114 140 128 123 123 126 130 125 125 124 121 117 109 107 102 95 92 87 83 83 81 79 77 77 75 75 78 78 79 80 80 79 81 84 85 81 81 83 84 81 81 82 79 79 77 76 72
270 222 175 188 147 231 266 67 83 92 75 347 80 127 135 128 122 134 140 133 151 176 159 320 260 214 167 121 122 67 51 18 212 54 37 96 93 109 169 167 151 138 143 138 129 119 109 102 92 85 65 88 140 131 125 128 127 125 127 125 121 116 113 108 103 96 93 89 86 82 82 81 81 80 78 79 78 79 81 81 82 82 83 84 81 80 80 79 82 83 82 80 78 77 80 75 71
260 273 125 245 146 245 119 93 66 354 95 33 31 118 134 123 138 148 150 183 152 204 172 221 251 286 67 197 156 92 83 58 64 61 71 78 97 120 169 153 153 140 133 142 135 111 109 105 97 91 68 68 104 140 134 127 125 123 123 123 122 120 116 109 104 101 98 94 90 85 83 82 81 78 77 77 78 79 81 82 83 83 82 84 82 80 82 83 82 82 81 78 76 77 77 72 71
233 258 97 259 187 243 159 72 86 62 102 124 98 45 86 136 156 155 156 122 117 180 158 184 158 258 123 155 68 120 93 80 73 75 72 79 93 96 151 186 151 139 142 146 137 126 127 123 119 91 84 86 138 151 141 126 119 123 123 126 126 123 117 113 111 106 100 97 92 87 85 85 83 80 78 77 77 78 79 81 83 81 83 89 88 85 83 84 80 79 78 76 75 73 72 72 69
196 266 191 268 319 167 116 132 156 105 118 113 133 150 139 146 152 207 150 157 150 164 97 73 107 320 147 147 126 165 111 102 100 93 79 91 92 116 213 189 133 149 146 142 149 139 118 126 105 95 88 78 85 156 148 132 124 128 129 126 128 128 123 119 114 111 106 101 97 92 89 89 85 83 81 80 80 79 78 80 82 84 82 81 86 88 88 82 80 79 77 76 75 74 72 70 65
204 187 333 240 206 134 213 114 108 147 128 147 124 142 152 156 162 166 184 126 119 176 125 177 205 214 205 114 63 64 108 118 149 104 95 93 97 141 156 64 52 151 143 146 140 146 132 137 113 107 98 71 65 68 89 128 133 131 127 129 130 131 126 121 121 114 112 105 99 95 93 90 88 86 85 84 83 83 81 83 84 86 87 88 88 87 86 83 80 77 76 75 74 73 71 68 64
217 203 190 248 200 314 78 101 120 117 127 155 160 154 160 164 170 177 171 178 170 183 174 185 53 359 209 166 114 135 128 143 108 89 110 125 110 97 89 118 106 64 111 115 118 122 135 129 149 118 88 85 61 66 63 85 138 128 125 132 131 133 129 130 124 119 113 108 102 99 98 94 92 90 88 87 84 84 86 86 89 91 92 92 89 86 83 82 79 78 77 76 74 74 72 69 65
281 183 216 261 58 300 70 165 112 124 159 183 153 159 155 171 185 182 172 208 162 183 170 178 41 248 220 150 96 129 151 135 99 113 128 152 139 134 157 144 96 75 87 93 92 80 107 143 138 158 118 118 123 64 46 85 128 124 128 132 134 133 134 132 125 125 119 113 106 100 97 96 94 92 90 88 86 87 89 89 91 94 95 95 92 87 85 83 81 81 81 79 79 76 74 70 66
282 213 269 246 21 296 207 67 125 192 183 142 133 137 168 179 193 241 169 191 180 194 62 60 223 290 264 120 147 156 146 120 110 121 135 134 117 119 172 154 98 93 87 93 95 92 81 113 142 139 138 179 160 127 131 90 123 131 126 126 127 131 135 134 131 131 119 110 105 101 98 95 95 93 91 89 89 89 92 93 95 96 96 97 96 94 90 87 86 85 84 81 79 77 72 68 64
299 330 260 20 170 224 100 220 165 220 117 138 131 149 165 170 12 196 217 214 114 62 103 15 345 250 86 253 138 144 136 130 128 133 142 135 127 104 149 139 131 99 77 100 98 111 103 94 105 135 147 165 186 185 169 139 137 132 133 129 129 132 134 129 131 124 115 112 110 109 104 94 89 88 87 89 93 87 86 89 95 99 101 101 100 96 93 92 89 87 84 81 78 73 68 64 60
331 253 233 216 198 234 144 214 164 235 118 136 144 146 169 144 204 207 94 7 70 77 221 162 199 329 357 42 87 98 118 130 128 139 149 143 123 111 161 161 152 121 115 136 136 120 96 127 124 146 156 187 175 197 174 174 136 142 145 135 135 132 136 131 124 122 120 118 117 119 118 112 103 92 90 87 84 88 90 96 98 101 100 100 98 97 96 94 91 88 85 82 77 72 66 60 56
273 283 212 221 192 220 133 195 164 180 101 114 142 158 181 166 160 356 25 283 230 148 194 137 169 178 31 77 102 118 124 124 137 145 158 160 155 146 172 186 182 180 179 172 178 140 145 143 152 144 181 178 178 196 186 171 140 148 148 133 128 128 133 130 121 125 127 126 130 133 136 125 123 120 114 104 96 90 92 95 99 100 99 99 99 100 98 95 94 92 90 88 86 82 76 66 56
238 212 239 220 148 198 130 188 173 32 158 139 165 174 197 164 162 157 174 200 229 141 216 160 92 155 87 110 126 127 135 144 153 160 171 172 178 173 166 191 194 193 188 186 163 140 155 149 161 178 177 194 185 198 215 189 143 183 166 154 143 136 134 136 143 147 143 140 145 156 149 141 135 123 116 114 108 105 95 95 98 101 102 102 102 102 100 97 93 92 89 84 80 78 78 75 67
232 231 242 252 111 61 5 75 66 46 79 146 162 179 203 172 164 153 211 197 198 208 212 194 203 178 130 139 137 153 153 162 166 177 182 183 182 189 185 189 202 180 189 189 161 156 147 147 170 169 185 185 194 205 201 210 182 197 180 176 157 157 157 161 161 158 158 155 165 170 161 153 131 131 130 111 107 96 100 101 98 98 99 98 98 99 97 94 93 90 87 85 85 80 68 65 57
160 284 221 135 70 86 54 40 82 52 343 141 156 165 205 102 181 129 220 221 193 226 213 192 216 199 181 163 159 157 170 172 179 185 192 197 192 190 189 196 203 191 182 189 171 148 141 145 156 171 155 143 203 198 193 207 211 199 185 193 172 175 173 178 173 173 174 167 177 184 179 146 132 105 97 109 115 116 100 91 93 93 95 97 100 96 93 91 91 90 88 82 69 59 60 61 57
106 236 312 54 28 128 82 72 63 46 345 160 154 148 193 157 167 184 203 241 227 236 242 220 204 221 179 164 165 166 174 181 187 194 196 201 204 202 192 195 207 181 190 169 163 173 164 166 176 179 162 159 202 206 184 221 212 216 177 194 206 183 181 191 184 186 187 181 184 182 175 151 131 127 127 137 137 131 131 127 127 125 123 123 127 115 119 129 110 90 78 66 67 62 60 58 59
231 28 51 28 41 88 95 80 40 20 334 142 137 159 195 114 187 214 222 227 230 315 197 207 301 17 140 161 170 171 180 184 190 195 200 200 200 202 196 188 201 169 136 167 192 170 174 179 191 179 179 182 187 218 202 161 301 230 215 190 205 187 192 201 191 188 176 181 198 191 158 151 141 143 148 151 141 146 146 151 144 140 137 135 139 135 120 98 91 85 75 69 68 65 62 60 57
217 128 83 52 12 80 94 123 58 331 120 161 180 159 100 183 208 211 228 236 206 68 53 66 75 71 134 157 160 177 185 190 192 197 200 202 199 201 197 192 171 168 172 199 194 191 171 184 185 205 215 189 194 228 215 184 209 240 244 234 195 196 199 197 199 187 191 184 190 186 194 163 154 157 153 152 152 158 159 155 149 145 149 147 145 119 105 101 87 82 77 77 75 73 64 60 60
297 103 126 73 8 81 61 77 81 15 296 135 40 59 217 181 236 148 234 239 251 99 89 83 88 120 139 160 174 184 189 193 196 198 201 205 202 202 194 196 199 191 185 201 188 195 185 197 194 202 219 226 217 206 223 212 192 173 171 283 250 209 195 202 197 192 193 175 187 204 174 176 166 163 159 160 158 164 158 149 135 148 144 138 122 118 115 98 89 82 83 81 79 74 68 61 61
215 123 115 96 72 81 87 101 110 91 63 31 243 210 214 221 278 15 248 243 244 197 136 129 126 136 171 187 186 193 193 195 196 195 196 205 204 207 207 203 195 183 193 194 195 206 198 203 213 220 225 224 228 228 226 224 205 197 202 220 235 310 225 206 202 195 195 197 192 176 148 152 161 151 147 152 151 134 118 129 136 150 134 122 112 110 108 104 101 96 89 87 84 84 78 67 64
15 107 120 121 99 104 111 122 121 129 107 145 192 225 143 182 338 269 257 248 118 108 155 174 184 195 200 206 200 196 196 195 192 190 190 183 189 194 194 201 197 201 203 204 206 213 220 215 225 234 235 238 234 234 231 229 217 201 223 226 171 147 285 271 208 186 199 165 196 191 173 176 160 159 145 152 162 145 130 135 135 102 86 84 98 111 108 109 106 100 94 93 91 88 82 76 76
114 120 118 116 117 126 179 170 137 104 76 152 259 237 190 126 225 260 125 90 134 168 208 197 200 216 212 212 210 205 201 197 191 185 179 185 188 196 197 205 210 211 204 205 202 210 210 221 240 245 244 243 254 239 234 231 215 207 198 222 200 162 124 4 269 181 178 186 179 125 122 153 154 134 128 135 138 128 116 102 101 113 95 93 99 92 86 100 106 102 106 107 99 90 81 81 77
121 118 112 110 136 121 141 144 134 191 149 228 279 276 188 181 209 241 133 131 139 186 200 200 210 222 216 210 207 203 207 200 189 186 192 190 193 195 196 195 199 202 196 200 202 198 197 213 227 238 241 235 232 238 232 229 227 194 137 219 210 172 156 146 263 166 175 171 168 160 160 155 138 133 133 131 123 113 108 97 95 89 100 87 91 96 88 92 99 99 99 98 100 95 89 80 81
132 177 157 141 153 185 178 189 144 245 125 235 317 281 252 191 229 233 178 153 147 194 218 201 207 212 215 210 203 199 204 195 187 195 203 199 193 191 196 192 190 193 191 199 198 181 198 204 220 214 231 251 235 230 225 221 224 187 161 217 217 178 176 165 172 197 185 158 165 166 161 159 153 138 140 136 128 132 126 116 107 104 109 112 111 108 105 106 98 104 102 104 93 92 93 91 85
166 198 259 158 190 220 159 122 122 236 102 255 254 262 248 204 224 157 135 159 173 218 235 231 219 212 212 208 206 208 200 196 197 202 199 198 194 191 196 188 191 188 184 180 181 189 194 181 196 205 239 241 234 223 221 215 212 196 205 225 217 197 189 182 177 166 159 164 172 165 158 163 164 154 147 147 137 127 129 121 119 115 112 111 111 115 112 107 109 113 119 113 103 100 100 94 93
185 145 264 222 194 179 139 175 137 221 111 192 239 265 281 89 144 120 138 155 198 233 240 239 231 218 210 207 209 211 206 203 203 199 200 195 189 187 191 182 181 186 172 181 186 192 171 177 194 186 213 226 234 216 302 287 218 203 197 212 217 229 188 152 142 135 136 109 94 96 165 167 168 152 152 149 143 139 130 127 126 124 124 122 117 113 113 111 118 123 129 117 106 100 98 96 94
147 170 207 201 241 114 130 122 171 242 138 199 202 259 257 272 121 132 130 176 201 228 246 248 240 226 220 210 211 213 211 199 205 203 198 193 188 185 191 184 185 190 188 182 179 175 173 177 188 199 206 213 209 210 217 283 165 175 186 176 166 49 50 75 94 121 140 136 120 113 105 145 129 137 128 124 123 128 135 134 135 133 134 127 121 123 120 123 125 119 120 122 116 112 110 104 97
198 244 143 189 220 151 166 136 115 16 117 176 218 263 330 202 117 125 162 192 194 231 243 244 243 238 229 221 216 216 206 200 199 202 196 192 192 190 188 190 186 187 189 184 180 173 178 168 180 204 204 203 200 189 178 82 163 163 142 116 98 79 62 53 49 53 76 133 142 127 129 110 109 108 114 113 116 128 123 120 132 138 138 133 131 130 125 127 137 131 128 124 118 119 114 109 102
200 205 252 152 222 192 232 97 183 153 244 221 208 244 249 272 263 165 175 188 187 232 253 258 252 241 229 223 219 214 210 206 205 199 196 190 189 190 187 186 184 182 185 186 179 176 179 163 180 203 202 196 190 171 166 137 126 114 114 110 105 104 94 76 63 67 53 29 61 117 126 113 111 118 118 115 116 119 121 125 130 137 137 133 129 125 122 134 141 136 129 126 121 119 119 114 107
200 182 222 213 222 250 304 210 115 236 195 256 244 238 254 257 268 270 233 193 220 241 252 258 259 255 244 226 221 215 212 212 215 196 190 189 184 186 185 181 183 181 183 183 177 172 169 167 185 193 196 187 179 150 132 122 107 90 83 95 91 86 87 80 72 85 79 69 34 46 94 121 128 136 130 131 133 133 130 134 137 141 140 127 124 127 136 148 147 138 131 127 124 114 115 112 109
358 232 233 299 241 191 222 94 114 296 247 239 241 254 263 258 258 252 254 244 222 245 253 255 252 249 248 240 228 218 213 220 210 190 180 179 183 180 182 178 180 180 181 179 176 175 170 174 186 182 193 185 168 147 147 148 148 140 136 108 96 79 72 85 72 58 93 90 82 50 76 97 119 139 137 146 144 141 142 145 142 144 148 134 134 139 148 155 149 138 134 130 121 109 105 114 119
3 344 293 273 284 270 100 98 61 188 290 258 255 262 267 269 267 268 269 267 261 246 245 248 243 239 237 235 235 223 211 217 176 168 165 173 177 179 180 177 181 179 182 178 178 178 176 177 187 191 182 178 166 159 167 166 159 138 139 163 148 139 120 96 95 85 59 127 134 114 113 125 124 120 123 141 146 143 142 141 141 145 144 143 142 147 146 147 143 137 128 123 127 124 124 127 126
280 280 276 246 174 273 81 99 142 112 277 286 290 278 271 273 273 271 265 258 255 253 252 249 246 240 236 233 233 226 215 132 133 148 161 167 177 180 179 181 182 181 184 181 182 179 180 183 195 191 178 178 183 176 166 177 171 170 166 163 142 140 131 146 147 148 149 96 113 131 137 142 141 134 139 139 144 144 140 145 144 142 142 146 141 139 142 137 140 137 135 127 133 133 135 147 149
218 268 252 287 254 311 112 83 127 161 223 271 290 288 281 279 278 272 260 249 247 248 251 258 263 258 246 239 237 233 199 167 172 171 169 176 179 182 182 186 188 188 181 183 179 179 183 187 196 193 182 180 183 176 169 171 158 78 116 128 138 121 40 39 93 90 129 135 94 77 113 127 140 132 142 147 145 142 144 146 146 141 144 144 143 145 146 150 146 145 147 141 139 135 137 157 175
225 218 229 243 57 327 238 108 119 186 235 302 316 296 276 273 263 257 259 256 255 252 251 255 254 256 255 250 243 232 222 186 179 181 179 180 183 185 185 188 189 186 182 180 180 182 184 191 195 193 183 182 175 170 151 107 91 84 65 65 66 71 126 78 74 68 86 116 120 94 66 100 123 134 147 151 144 144 150 151 147 150 148 154 153 151 154 151 150 151 149 147 143 141 154 160 202
212 240 246 260 273 250 266 355 309 211 238 304 274 274 263 242 252 253 246 254 246 248 246 250 250 249 256 266 256 240 229 214 198 183 178 178 182 189 189 188 184 186 184 182 179 180 186 191 193 195 182 180 176 150 126 120 113 100 91 81 85 94 78 45 85 132 143 123 121 132 120 98 103 120 135 145 148 144 147 153 154 152 152 160 159 154 157 156 156 155 154 153 164 152 155 160 203
206 205 229 260 360 293 316 322 342 287 244 123 329 318 294 100 208 253 160 185 212 215 225 238 243 238 232 233 232 228 230 231 226 199 182 180 183 183 188 185 188 186 185 180 176 179 186 189 193 191 178 179 172 155 141 140 146 140 141 143 149 150 143 153 179 180 174 166 155 118 106 110 118 119 132 144 151 145 148 151 151 148 152 161 160 152 150 149 159 160 161 161 164 167 153 156 165
251 172 279 242 255 10 320 302 315 280 290 116 323 321 283 265 264 235 217 207 235 243 230 259 257 245 219 213 214 220 222 214 217 218 183 176 180 181 185 186 187 186 185 173 174 183 186 187 192 188 176 172 161 153 149 150 152 164 168 168 166 169 166 188 168 117 135 135 120 132 128 118 126 143 134 142 139 149 146 150 149 148 150 154 153 151 153 159 161 160 160 169 168 160 159 160 160
237 38 308 143 196 210 264 291 268 275 326 289 167 223 279 287 250 232 229 233 242 247 253 251 251 253 204 196 207 211 200 193 191 206 198 183 178 183 184 183 182 185 177 171 176 183 190 193 196 189 170 168 147 154 160 164 167 172 178 185 184 179 179 163 162 147 134 122 122 129 138 132 125 129 132 129 139 148 154 149 147 148 150 153 152 155 156 158 151 153 168 170 156 163 170 161 151
39 41 13 98 147 94 189 248 286 305 333 295 163 192 252 267 65 36 166 202 205 229 244 252 258 110 116 183 133 106 121 167 187 193 197 182 181 183 183 180 181 179 177 173 175 181 192 196 198 185 170 160 161 164 166 175 181 177 178 180 179 178 136 126 119 120 126 134 126 132 139 137 137 124 130 135 139 146 155 149 144 145 145 145 151 148 149 150 150 148 147 147 157 160 173 138 143
135 139 82 86 86 87 139 281 283 295 292 268 159 178 270 285 264 160 164 202 197 230 236 242 140 101 106 100 96 127 142 143 176 184 180 177 178 178 182 174 176 179 177 173 172 178 193 199 192 180 174 166 164 168 173 180 185 182 188 188 182 150 120 123 133 139 140 148 137 147 142 145 142 139 133 144 143 148 146 141 141 140 141 143 141 125 119 125 132 134 137 143 144 135 117 138 158
130 152 109 115 128 159 177 268 269 286 251 264 159 178 217 290 282 165 156 195 209 189 200 153 101 112 106 99 123 139 140 136 147 155 158 162 168 172 176 177 178 175 175 174 174 185 196 201 198 182 178 165 163 171 177 183 188 189 194 191 192 167 151 147 145 150 152 157 157 158 156 153 152 150 156 154 154 149 141 142 144 140 132 118 108 113 125 125 127 124 111 104 111 127 129 114 111
162 156 174 170 220 171 226 211 153 233 258 102 338 285 221 238 273 152 146 180 314 168 154 171 123 103 107 127 128 126 123 129 142 148 153 157 160 171 177 180 180 179 177 179 178 191 200 201 198 183 176 171 168 174 178 184 186 187 185 186 190 167 161 167 170 174 175 173 167 161 154 149 154 155 164 160 161 152 145 137 124 120 117 118 120 124 124 128 125 118 126 133 115 98 112 124 120
233 183 182 211 221 165 224 181 217 206 247 103 26 346 292 234 243 112 223 252 208 246 241 174 276 197 160 161 155 141 135 141 156 162 163 173 175 177 182 184 183 186 184 183 183 194 201 203 204 187 178 174 171 170 178 182 184 181 176 184 162 154 164 172 185 171 170 168 166 160 160 162 158 165 173 167 160 152 145 134 137 133 125 120 115 113 113 121 124 130 130 124 122 125 133 128 127
200 199 186 192 229 225 245 220 231 300 91 289 76 118 250 275 294 246 245 231 228 211 229 244 253 257 238 170 165 155 156 160 167 172 178 180 182 182 185 187 188 189 189 185 183 195 203 208 206 191 179 174 171 174 179 183 185 182 183 182 165 158 162 163 183 187 172 169 166 170 172 167 166 174 166 163 148 145 139 135 132 119 109 108 111 112 118 122 130 127 125 122 117 108 102 98 94
204 205 196 207 216 225 237 220 235 239 278 87 254 165 245 271 265 7 15 54 63 52 304 265 273 270 224 218 166 163 165 171 171 178 185 186 185 185 186 190 190 191 190 187 185 194 203 209 204 190 179 176 174 177 180 182 182 179 174 162 152 159 158 161 183 192 186 182 174 170 178 169 168 163 155 134 136 143 131 127 121 117 116 121 123 124 123 123 123 117 112 112 102 100 98 98 97
189 220 246 249 236 253 260 353 353 2 338 213 168 231 272 237 351 267 262 248 251 210 222 226 241 258 249 233 220 200 189 181 172 181 185 188 186 186 187 191 192 191 191 191 190 194 203 208 206 194 188 181 180 179 181 182 184 174 168 169 158 157 161 176 191 193 197 192 177 172 174 168 162 142 127 126 133 132 130 126 121 122 127 129 131 130 132 125 121 116 111 105 97 86 99 98 102
168 154 213 209 24 284 34 136 83 87 278 257 220 264 258 285 274 254 236 231 231 211 195 192 221 237 239 245 243 202 182 175 167 179 186 186 184 189 190 190 190 191 191 193 191 192 200 205 207 198 193 185 186 185 184 184 182 176 183 167 161 164 174 185 195 194 192 183 173 172 162 153 129 128 125 128 130 129 129 134 133 133 131 129 127 126 122 120 120 115 115 112 110 109 108 112 116
110 213 195 74 30 7 210 252 183 212 244 262 184 236 274 285 284 77 156 203 234 229 210 211 225 222 225 238 246 208 163 167 170 180 190 187 185 186 189 192 192 192 191 192 193 194 199 204 208 202 194 188 188 183 183 181 177 171 172 178 162 168 177 188 191 191 190 176 173 162 145 137 145 127 129 128 130 132 132 137 134 132 128 127 129 124 124 127 121 109 115 114 116 117 113 105 101
320 329 33 179 200 212 207 231 242 241 242 266 244 247 258 242 253 254 146 172 173 179 200 211 226 230 230 230 241 186 131 147 169 191 189 185 186 188 189 191 192 192 191 191 190 193 198 199 206 209 201 194 189 187 186 183 179 175 173 174 174 171 168 182 190 180 179 179 174 167 156 148 127 132 137 137 135 138 146 143 140 136 135 133 129 129 132 128 125 122 121 115 120 122 119 115 111
355 274 247 357 327 250 202 199 276 255 253 239 261 253 261 240 246 263 252 248 244 214 199 209 222 232 237 234 234 168 155 167 181 191 193 190 188 190 189 189 189 189 188 188 189 192 197 197 201 206 204 195 187 182 180 185 179 173 178 165 172 168 167 178 191 185 182 187 179 166 155 144 146 144 151 145 145 151 153 147 145 140 140 137 138 136 139 131 127 128 128 128 131 130 124 127 124
189 220 223 175 217 33 342 275 220 229 248 249 273 275 256 274 240 253 259 246 219 225 220 213 223 234 237 239 66 97 140 163 182 181 176 190 192 192 193 192 190 187 188 184 189 193 193 194 200 202 204 196 188 182 177 180 163 172 171 178 170 164 175 182 188 193 186 184 181 167 158 148 137 154 154 155 153 153 152 149 145 148 148 148 145 146 141 140 136 135 129 128 137 136 135 132 133
190 191 205 197 177 195 205 241 140 220 228 240 255 257 275 248 62 88 264 232 217 183 193 221 231 237 235 128 126 140 156 183 193 195 172 173 178 186 189 188 188 190 191 189 188 190 193 195 196 201 204 201 188 183 181 174 174 172 179 178 174 171 181 183 191 192 188 183 179 169 156 144 156 158 165 159 155 153 153 150 149 150 149 148 148 147 148 149 145 139 125 136 145 149 147 142 145